Date String (YYYY-MM-DD hh:mm:ss) UTC,Instrument flags,Ambient pressure (hPa),Sample flow (lpm),Bypass flow (lpm),Sample temperature (°C),Ambient temperature (°C),ASC tube jacket temperature (°C),LED temperature (°C),Box temperature (°C),Sample RH (%),Span deviation,Mass concentration (μg/m³),Mass concentration (μg/m³),Mass concentration (μg/m³)
DateTimeUTC,F1_M11,P_M11,Q1_M11,Q2_M11,T1_M11,T2_M11,T3_M11,T4_M11,T5_M11,U1_M11,ZSPAN_M11,X0_M11,X2_M11,X1_M11
2023-05-06 12:00:00,,0825.9,5.00,0.00,27.1,25.4,00.0,35.4,28.5,13.7,0000.0,0009.70,0003.98,0002.35
2023-05-06 12:01:00,,0825.8,5.00,0.00,27.1,25.4,00.0,35.4,28.6,13.8,0000.0,0009.95,0004.04,0002.40
2023-05-06 12:02:00,,0825.9,5.00,0.00,27.1,25.4,00.0,35.4,28.5,13.6,0000.0,0009.87,0004.06,0002.44
2023-05-06 12:03:00,,0825.9,4.99,0.00,27.1,25.4,00.0,35.4,28.5,13.9,0000.0,0009.90,0004.08,0002.47
2023-05-06 12:04:00,,0825.9,4.99,0.00,27.1,25.5,00.0,35.4,28.6,13.9,0000.0,0010.93,0004.12,0002.52
2023-05-06 12:05:00,,0825.9,5.00,0.00,27.1,25.5,00.0,35.4,28.6,14.3,0000.0,0011.48,0004.15,0002.59
2023-05-06 12:06:00,,0825.9,5.01,0.00,27.1,25.4,00.0,35.4,28.6,14.6,0000.0,0012.18,0004.18,0002.66
2023-05-06 12:07:00,,0826.0,5.01,0.00,27.1,25.5,00.0,35.4,28.6,14.3,0000.0,0011.60,0004.23,0002.75
2023-05-06 12:08:00,,0826.0,4.99,0.00,27.1,25.5,00.0,35.4,28.6,14.5,0000.0,0011.30,0004.16,0002.80
2023-05-06 12:09:00,,0825.9,4.99,0.00,27.1,25.5,00.0,35.4,28.6,14.5,0000.0,0011.36,0004.21,0002.88
2023-05-06 12:10:00,,0826.0,4.99,0.00,27.1,25.5,00.0,35.4,28.6,14.8,0000.0,0011.70,0004.27,0002.99
2023-05-06 12:11:00,,0826.0,5.01,0.00,27.1,25.5,00.0,35.4,28.5,15.4,0000.0,0012.03,0004.36,0003.09
2023-05-06 12:12:00,,0826.0,5.01,0.00,27.1,25.4,00.0,35.4,28.5,15.6,0000.0,0011.89,0004.39,0003.17
2023-05-06 12:13:00,,0825.9,5.01,0.00,27.1,25.4,00.0,35.4,28.5,15.6,0000.0,0012.65,0004.48,0003.24
2023-05-06 12:14:00,,0826.0,5.00,0.00,27.1,25.4,00.0,35.4,28.5,15.7,0000.0,0012.62,0004.56,0003.31
2023-05-06 12:15:00,,0825.9,4.99,0.00,27.1,25.4,00.0,35.4,28.5,15.4,0000.0,0011.86,0004.63,0003.37
2023-05-06 12:16:00,,0825.9,5.00,0.00,27.1,25.4,00.0,35.4,28.5,15.2,0000.0,0011.34,0004.73,0003.42
2023-05-06 12:17:00,,0825.9,5.02,0.00,27.1,25.4,00.0,35.4,28.5,15.8,0000.0,0010.84,0004.81,0003.47
2023-05-06 12:18:00,,0825.9,5.00,0.00,27.1,25.4,00.0,35.4,28.5,16.3,0000.0,0010.99,0004.90,0003.55
2023-05-06 12:19:00,,0826.0,4.99,0.00,27.1,25.4,00.0,35.4,28.5,17.0,0000.0,0011.70,0005.12,0003.67
2023-05-06 12:20:00,,0826.0,4.98,0.00,27.1,25.4,00.0,35.4,28.5,17.3,0000.0,0012.10,0005.25,0003.78
2023-05-06 12:21:00,,0826.0,5.00,0.00,27.1,25.5,00.0,35.4,28.5,17.6,0000.0,0012.11,0005.34,0003.88
2023-05-06 12:22:00,,0826.0,5.00,0.00,27.1,25.5,00.0,35.4,28.5,17.9,0000.0,0012.03,0005.44,0003.98
2023-05-06 12:23:00,,0826.0,5.01,0.00,27.1,25.5,00.0,35.4,28.5,16.4,0000.0,0012.42,0005.49,0004.01
2023-05-06 12:24:00,,0826.0,5.01,0.00,27.1,25.5,00.0,35.4,28.5,15.7,0000.0,0012.67,0005.51,0004.01
2023-05-06 12:25:00,,0826.1,5.00,0.00,27.1,25.5,00.0,35.4,28.5,16.9,0000.0,0013.22,0005.54,0004.05
2023-05-06 12:26:00,,0826.0,5.00,0.00,27.1,25.5,00.0,35.4,28.5,17.1,0000.0,0013.32,0005.55,0004.11
2023-05-06 12:27:00,,0826.0,4.99,0.00,27.1,25.5,00.0,35.4,28.5,17.1,0000.0,0013.24,0005.53,0004.18
2023-05-06 12:28:00,,0826.0,5.00,0.00,27.1,25.5,00.0,35.4,28.5,16.9,0000.0,0013.23,0005.55,0004.20
2023-05-06 12:29:00,,0826.0,5.00,0.00,27.1,25.5,00.0,35.4,28.6,16.9,0000.0,0013.14,0005.54,0004.20
2023-05-06 12:30:00,,0826.0,5.01,0.00,27.1,25.5,00.0,35.4,28.6,16.4,0000.0,0013.02,0005.46,0004.15
2023-05-06 12:31:00,,0826.0,5.01,0.00,27.1,25.5,00.0,35.4,28.6,15.9,0000.0,0013.06,0005.37,0004.07
2023-05-06 12:32:00,,0826.0,5.00,0.00,27.1,25.5,00.0,35.4,28.6,15.8,0000.0,0013.01,0005.26,0003.99
2023-05-06 12:33:00,,0826.0,4.99,0.00,27.1,25.5,00.0,35.4,28.6,15.8,0000.0,0012.89,0005.11,0003.87
2023-05-06 12:34:00,,0826.0,4.99,0.00,27.1,25.5,00.0,35.5,28.6,15.8,0000.0,0012.82,0005.06,0003.79
2023-05-06 12:35:00,,0826.0,5.00,0.00,27.1,25.5,00.0,35.5,28.6,15.6,0000.0,0011.67,0004.98,0003.76
2023-05-06 12:36:00,,0826.0,5.01,0.00,27.1,25.5,00.0,35.4,28.6,15.2,0000.0,0011.10,0004.89,0003.68
2023-05-06 12:37:00,,0826.0,5.00,0.00,27.1,25.5,00.0,35.4,28.6,14.6,0000.0,0010.84,0004.82,0003.57
2023-05-06 12:38:00,,0826.0,5.00,0.00,27.1,25.5,00.0,35.5,28.6,14.4,0000.0,0010.62,0004.71,0003.43
2023-05-06 12:39:00,,0826.0,5.00,0.00,27.1,25.5,00.0,35.5,28.6,14.8,0000.0,0010.53,0004.62,0003.32
2023-05-06 12:40:00,,0826.0,5.00,0.00,27.1,25.5,00.0,35.5,28.6,15.4,0000.0,0010.31,0004.47,0003.23
2023-05-06 12:41:00,,0826.1,5.01,0.00,27.1,25.5,00.0,35.5,28.6,15.5,0000.0,0010.30,0004.35,0003.17
2023-05-06 12:42:00,,0826.2,4.99,0.00,27.1,25.5,00.0,35.5,28.6,15.6,0000.0,0010.37,0004.31,0003.12
2023-05-06 12:43:00,,0826.2,5.00,0.00,27.1,25.5,00.0,35.5,28.6,15.3,0000.0,0010.84,0004.28,0003.04
2023-05-06 12:44:00,,0826.2,5.01,0.00,27.1,25.5,00.0,35.5,28.7,15.2,0000.0,0010.59,0004.22,0002.94
2023-05-06 12:45:00,,0826.2,5.00,0.00,27.2,25.5,00.0,35.5,28.6,15.2,0000.0,0010.49,0004.15,0002.85
2023-05-06 12:46:00,,0826.2,5.00,0.00,27.2,25.5,00.0,35.5,28.6,15.2,0000.0,0010.98,0004.15,0002.78
2023-05-06 12:47:00,,0826.2,5.01,0.00,27.1,25.6,00.0,35.5,28.7,15.2,0000.0,0011.19,0004.09,0002.73
2023-05-06 12:48:00,,0826.2,5.00,0.00,27.1,25.6,00.0,35.5,28.7,15.2,0000.0,0011.77,0004.12,0002.72
2023-05-06 12:49:00,,0826.2,5.00,0.00,27.1,25.5,00.0,35.5,28.7,15.3,0000.0,0011.83,0004.13,0002.75
2023-05-06 12:50:00,,0826.2,5.00,0.00,27.1,25.5,00.0,35.5,28.6,15.3,0000.0,0012.61,0004.12,0002.77
2023-05-06 12:51:00,,0826.2,5.00,0.00,27.1,25.5,00.0,35.5,28.6,15.2,0000.0,0012.68,0004.13,0002.75
2023-05-06 12:52:00,,0826.2,5.01,0.00,27.2,25.5,00.0,35.5,28.6,14.5,0000.0,0012.29,0004.10,0002.71
2023-05-06 12:53:00,,0826.2,5.01,0.00,27.2,25.5,00.0,35.5,28.6,14.7,0000.0,0012.05,0004.03,0002.66
2023-05-06 12:54:00,,0826.2,5.00,0.00,27.2,25.5,00.0,35.5,28.6,13.9,0000.0,0012.40,0003.99,0002.64
2023-05-06 12:55:00,,0826.2,5.01,0.00,27.2,25.5,00.0,35.5,28.6,13.4,0000.0,0012.66,0004.01,0002.62
2023-05-06 12:56:00,,0826.2,5.00,0.00,27.2,25.5,00.0,35.5,28.6,13.3,0000.0,0012.73,0004.02,0002.59
2023-05-06 12:57:00,,0826.2,4.99,0.00,27.2,25.5,00.0,35.5,28.6,13.4,0000.0,0012.33,0004.00,0002.55
2023-05-06 12:58:00,,0826.2,5.00,0.00,27.2,25.5,00.0,35.5,28.6,13.5,0000.0,0012.47,0004.03,0002.53
2023-05-06 12:59:00,,0826.3,4.99,0.00,27.2,25.6,00.0,35.5,28.6,13.8,0000.0,0012.04,0003.95,0002.51
